Date String (YYYY-MM-DD hh:mm:ss) UTC,Instrument flags,absolute air pressure of the measurement (hPa),sample flow rate (lpm),inlet stack bypass flow (lpm),air temperature of the measurement (°C),ambient temperature measured by the external sensor (°C),aerosol sample conditioner tube jacket temperature (°C),OPC LED temperature (°C),internal box temperature (°C),relative humidity of the measurement (%),span deviation,mass concentration of particles derived from Lorenz-Mie calculation of OPC scattering (μg/m³),mass concentration of particles derived from Lorenz-Mie calculation of OPC scattering (μg/m³),mass concentration of particles derived from Lorenz-Mie calculation of OPC scattering (μg/m³)
DateTimeUTC,F1_M11,P_M11,Q1_M11,Q2_M11,T1_M11,T2_M11,T3_M11,T4_M11,T5_M11,U1_M11,ZSPAN_M11,X0_M11,X2_M11,X1_M11
2024-04-06 17:00:00,SystemResetWarning,0810.7,4.99,000.00,018.3,017.5,000.0,026.9,020.0,011.2,0000.0,0009.50,0001.27,0000.38
2024-04-06 17:01:00,SystemResetWarning,0810.7,5.00,000.00,018.3,017.5,000.0,026.9,020.0,011.3,0000.0,0010.07,0001.21,0000.37
2024-04-06 17:02:00,SystemResetWarning,0810.6,5.01,000.00,018.3,017.5,000.0,026.9,020.0,011.3,0000.0,0009.69,0001.23,0000.38
2024-04-06 17:03:00,SystemResetWarning,0810.6,5.01,000.00,018.3,017.5,000.0,026.9,020.0,011.5,0000.0,0008.81,0001.20,0000.39
2024-04-06 17:04:00,SystemResetWarning,0810.5,4.99,000.00,018.3,017.5,000.0,026.9,020.0,011.4,0000.0,0008.72,0001.16,0000.39
2024-04-06 17:05:00,SystemResetWarning,0810.5,5.00,000.00,018.3,017.4,000.0,026.9,020.0,011.5,0000.0,0008.67,0001.11,0000.40
2024-04-06 17:06:00,SystemResetWarning,0810.5,4.99,000.00,018.3,017.4,000.0,026.9,020.0,011.3,0000.0,0008.69,0001.12,0000.40
2024-04-06 17:07:00,SystemResetWarning,0810.6,5.01,000.00,018.3,017.4,000.0,026.9,020.0,011.4,0000.0,0008.69,0001.13,0000.41
2024-04-06 17:08:00,SystemResetWarning,0810.6,5.00,000.00,018.3,017.4,000.0,026.9,020.0,011.2,0000.0,0008.09,0001.14,0000.41
2024-04-06 17:09:00,SystemResetWarning,0810.6,5.00,000.00,018.3,017.4,000.0,026.9,020.0,011.5,0000.0,0006.67,0001.17,0000.42
2024-04-06 17:10:00,SystemResetWarning,0810.6,5.00,000.00,018.3,017.3,000.0,026.9,020.0,011.3,0000.0,0006.29,0001.20,0000.42
2024-04-06 17:11:00,SystemResetWarning,0810.6,5.00,000.00,018.3,017.3,000.0,026.9,020.0,011.4,0000.0,0007.64,0001.28,0000.43
2024-04-06 17:12:00,SystemResetWarning,0810.3,4.99,000.00,018.3,017.3,000.0,026.9,020.0,011.5,0000.0,0007.24,0001.26,0000.45
2024-04-06 17:13:00,SystemResetWarning,0810.1,5.00,000.00,018.3,017.3,000.0,026.9,020.0,011.2,0000.0,0007.63,0001.27,0000.44
2024-04-06 17:14:00,SystemResetWarning,0810.3,5.01,000.00,018.3,017.3,000.0,026.9,020.0,011.4,0000.0,0008.72,0001.28,0000.43
2024-04-06 17:15:00,SystemResetWarning,0810.4,5.01,000.00,018.3,017.3,000.0,026.9,020.0,011.8,0000.0,0009.23,0001.41,0000.43
2024-04-06 17:16:00,SystemResetWarning,0810.4,5.00,000.00,018.3,017.2,000.0,026.9,020.0,011.9,0000.0,0010.94,0001.48,0000.43
2024-04-06 17:17:00,SystemResetWarning,0810.3,5.00,000.00,018.3,017.2,000.0,026.9,020.0,012.0,0000.0,0011.90,0001.50,0000.42
2024-04-06 17:18:00,SystemResetWarning,0810.1,5.00,000.00,018.3,017.2,000.0,026.9,020.0,011.9,0000.0,0011.78,0001.54,0000.42
2024-04-06 17:19:00,SystemResetWarning,0810.3,5.00,000.00,018.3,017.2,000.0,027.0,020.0,011.8,0000.0,0012.36,0001.63,0000.43
2024-04-06 17:20:00,SystemResetWarning,0810.6,5.00,000.00,018.3,017.2,000.0,026.9,020.0,011.9,0000.0,0013.10,0001.77,0000.45
2024-04-06 17:21:00,SystemResetWarning,0810.2,4.99,000.00,018.3,017.2,000.0,026.9,020.0,012.0,0000.0,0013.37,0001.83,0000.46
2024-04-06 17:22:00,SystemResetWarning,0810.2,5.00,000.00,018.3,017.2,000.0,026.9,020.0,011.8,0000.0,0013.36,0001.83,0000.46
2024-04-06 17:23:00,SystemResetWarning,0810.4,5.00,000.00,018.3,017.1,000.0,026.9,020.0,011.9,0000.0,0013.23,0001.83,0000.46
2024-04-06 17:24:00,SystemResetWarning,0810.4,5.00,000.00,018.3,017.1,000.0,026.9,020.0,011.9,0000.0,0013.83,0001.81,0000.46
2024-04-06 17:25:00,SystemResetWarning,0810.3,5.01,000.00,018.3,017.1,000.0,026.9,020.0,011.9,0000.0,0013.91,0001.81,0000.46
2024-04-06 17:26:00,SystemResetWarning,0810.3,5.00,000.00,018.3,017.1,000.0,026.9,020.0,011.7,0000.0,0014.17,0001.79,0000.45
2024-04-06 17:27:00,SystemResetWarning,0810.3,5.00,000.00,018.3,017.1,000.0,026.9,020.0,011.5,0000.0,0013.11,0001.84,0000.46
2024-04-06 17:28:00,SystemResetWarning,0810.4,4.99,000.00,018.3,017.1,000.0,026.9,020.0,011.6,0000.0,0012.25,0001.87,0000.46
2024-04-06 17:29:00,SystemResetWarning,0810.6,5.00,000.00,018.3,017.1,000.0,026.9,020.0,011.7,0000.0,0012.23,0001.81,0000.45
2024-04-06 17:30:00,SystemResetWarning,0810.6,5.00,000.00,018.3,017.1,000.0,026.9,020.0,011.8,0000.0,0011.88,0001.70,0000.44
2024-04-06 17:31:00,SystemResetWarning,0810.5,5.01,000.00,018.3,017.1,000.0,026.9,020.0,011.9,0000.0,0011.79,0001.67,0000.43
2024-04-06 17:32:00,SystemResetWarning,0810.4,5.00,000.00,018.3,017.1,000.0,026.9,020.0,011.8,0000.0,0011.78,0001.66,0000.42
2024-04-06 17:33:00,SystemResetWarning,0810.5,5.00,000.00,018.3,017.0,000.0,026.9,020.0,011.8,0000.0,0010.89,0001.69,0000.42
2024-04-06 17:34:00,SystemResetWarning,0810.5,5.00,000.00,018.3,017.0,000.0,026.9,020.0,011.9,0000.0,0011.54,0001.74,0000.42
2024-04-06 17:35:00,SystemResetWarning,0810.5,5.00,000.00,018.3,017.0,000.0,026.9,020.0,012.1,0000.0,0010.73,0001.73,0000.42
2024-04-06 17:36:00,SystemResetWarning,0810.5,5.00,000.00,018.3,017.0,000.0,026.9,020.0,012.2,0000.0,0010.70,0001.75,0000.42
2024-04-06 17:37:00,SystemResetWarning,0810.6,5.00,000.00,018.3,017.0,000.0,026.9,020.0,012.2,0000.0,0010.63,0001.74,0000.41
2024-04-06 17:38:00,SystemResetWarning,0810.5,5.00,000.00,018.3,017.0,000.0,026.9,020.0,012.0,0000.0,0010.08,0001.63,0000.41
2024-04-06 17:39:00,SystemResetWarning,0810.7,5.00,000.00,018.3,017.0,000.0,026.9,020.0,012.1,0000.0,0009.89,0001.53,0000.40
2024-04-06 17:40:00,SystemResetWarning,0810.7,5.00,000.00,018.3,017.0,000.0,026.9,020.0,012.4,0000.0,0009.81,0001.53,0000.40
2024-04-06 17:41:00,SystemResetWarning,0810.7,5.00,000.00,018.3,017.0,000.0,026.9,020.0,012.4,0000.0,0009.59,0001.52,0000.39
2024-04-06 17:42:00,SystemResetWarning,0810.6,5.01,000.00,018.3,017.0,000.0,026.9,020.0,012.3,0000.0,0009.26,0001.39,0000.38
2024-04-06 17:43:00,SystemResetWarning,0810.6,5.00,000.00,018.3,017.0,000.0,026.9,020.0,012.4,0000.0,0009.94,0001.28,0000.37
2024-04-06 17:44:00,SystemResetWarning,0810.5,5.00,000.00,018.3,017.0,000.0,026.9,020.0,012.4,0000.0,0010.40,0001.19,0000.35
2024-04-06 17:45:00,SystemResetWarning,0810.3,5.00,000.00,018.3,017.0,000.0,026.9,020.0,012.3,0000.0,0009.30,0001.11,0000.34
2024-04-06 17:46:00,SystemResetWarning,0810.3,5.00,000.00,018.3,017.0,000.0,026.9,020.0,012.2,0000.0,0008.97,0001.09,0000.34
2024-04-06 17:47:00,SystemResetWarning,0810.3,5.01,000.00,018.3,016.9,000.0,026.9,020.0,012.2,0000.0,0008.55,0001.07,0000.33
2024-04-06 17:48:00,SystemResetWarning,0810.2,5.01,000.00,018.3,016.9,000.0,026.9,020.0,012.2,0000.0,0008.28,0000.99,0000.33
2024-04-06 17:49:00,SystemResetWarning,0810.3,4.99,000.00,018.2,016.9,000.0,026.9,020.0,012.3,0000.0,0008.56,0001.04,0000.33
2024-04-06 17:50:00,SystemResetWarning,0810.3,4.99,000.00,018.2,016.9,000.0,026.9,020.0,012.3,0000.0,0008.81,0001.08,0000.34
2024-04-06 17:51:00,SystemResetWarning,0810.3,5.00,000.00,018.2,016.9,000.0,026.9,020.0,012.4,0000.0,0009.18,0001.11,0000.35
2024-04-06 17:52:00,SystemResetWarning,0810.3,5.01,000.00,018.2,016.9,000.0,026.9,020.0,012.5,0000.0,0009.12,0001.09,0000.35
2024-04-06 17:53:00,SystemResetWarning,0810.3,5.01,000.00,018.2,016.9,000.0,026.9,020.0,012.6,0000.0,0009.20,0001.14,0000.35
2024-04-06 17:54:00,SystemResetWarning,0810.2,5.01,000.00,018.2,016.9,000.0,026.9,020.0,012.4,0000.0,0008.70,0001.24,0000.35
2024-04-06 17:55:00,SystemResetWarning,0809.9,4.99,000.00,018.2,016.9,000.0,026.9,020.0,012.5,0000.0,0008.85,0001.30,0000.35
2024-04-06 17:56:00,SystemResetWarning,0810.0,5.01,000.00,018.2,016.9,000.0,026.9,020.0,012.2,0000.0,0009.46,0001.39,0000.36
2024-04-06 17:57:00,SystemResetWarning,0810.0,5.01,000.00,018.3,017.1,000.0,026.9,020.0,012.2,0000.0,0009.25,0001.48,0000.36
2024-04-06 17:58:00,SystemResetWarning,0810.0,5.01,000.00,018.4,018.0,000.0,027.0,020.4,012.2,0000.0,0009.36,0001.51,0000.37
2024-04-06 17:59:00,SystemResetWarning,0810.3,5.00,000.00,018.6,018.8,000.0,027.0,020.9,011.9,0000.0,0009.97,0001.57,0000.37
